Location: Rancho Del Sol Observatory
(38.7214°N, 120.6350°W)
Time: 14:00:34
(UTC-08:00)

A-11 Canister half - Pass Details

Date: 02 February 2020
Orbit: 1517 x 1683 km, 47.2° (Epoch: 19 February)

Event Time Altitude Azimuth Distance (km) Brightness Sun altitude
Rises 05:54:37 0° 290° (WNW) 4,661 - -14.6°
Reaches altitude 10° 05:58:54 10° 273° (W) 3,676 - -13.8°
Exits shadow 06:00:51 14° 262° (W) 3,356 10.2 -13.4°
Maximum altitude 06:04:29 18° 235° (SW) 3,102 10.2 -12.7°
Drops below altitude 10° 06:10:09 10° 197° (SSW) 3,702 11.0 -11.6°
Sets 06:14:32 0° 179° (S) 4,705 11.7 -10.8°
